Location: Glen Avon
(34.0117°N, 117.4848°W)
Time: 11:47:53
(UTC+00:00)

Daily predictions for brighter satellites

Satellite Brightness Start Highest point End
(mag) Time Altitude Azimuth Time Altitude Azimuth Time Altitude Azimuth
Cosmos 1184 Rocket 3.5 12:01:31 10° NNW 12:04:24 32° W 12:06:53 13° SSW
Cosmos 2208 Rocket 4.0 12:00:30 10° NNW 12:05:43 87° WSW 12:10:53 10° SSE
SL-19 R/B 4.5 12:05:55 10° SSE 12:11:33 84° ENE 12:17:34 10° NNW
Cosmos 1441 Rocket 3.2 12:08:25 10° NNW 12:12:21 67° W 12:16:16 10° S
Cosmos 1484 Rocket 2.8 12:11:13 10° N 12:15:14 84° WNW 12:19:13 10° SSW
FENGYUN 3A 3.9 12:11:46 10° N 12:17:00 51° WNW 12:22:11 10° SSW
Cosmos 1758 4.2 12:14:11 12° SW 12:17:23 30° W 12:20:56 10° NNW
PSLV R/B 3.6 12:15:15 10° N 12:19:26 60° WNW 12:23:34 10° SSW
Cosmos 2278 Rocket 2.3 12:17:46 10° SSW 12:23:20 61° WNW 12:28:57 10° NNE
USA 215 3.3 12:19:40 10° NE 12:26:12 76° NW 12:32:42 10° SW
Lacrosse 5 rocket 3.9 12:29:15 10° SSE 12:32:21 18° ESE 12:35:22 10° ENE
ALOS 3.1 12:29:59 10° N 12:34:08 33° WNW 12:38:16 10° SW
GPS 2-04 Rocket1 2.8 12:31:02 10° W 12:35:10 87° NNW 12:39:15 10° ENE
Meteor 1-21 Rocket 4.3 12:31:09 10° N 12:36:53 89° ENE 12:42:29 10° S
CZ-3 R/B 3.4 12:10:16 10° WSW 12:39:12 63° S 12:46:29 10° E
